Weather History for Santa Ana, CA

Change the Weather History Date:

Friday, January 24, 2014

  Actual Average Record
Temperature  
Mean Temperature 64 °F 57 °F  
Max Temperature 72 °F 67 °F 79 °F (2006)
Min Temperature 55 °F 48 °F 41 °F (2010)
Degree Days  
Heating Degree Days 1 8  
Month to date heating degree days 87 203  
Since 1 July heating degree days 356 635  
Cooling Degree Days 0 0  
Month to date cooling degree days 27 0  
Year to date cooling degree days 27 0  
Growing Degree Days 13 (Base 50)    
Moisture  
Dew Point 50 °F    
Average Humidity 58    
Maximum Humidity 86    
Minimum Humidity 29    
Precipitation  
Precipitation 0.00 in 0.06 in 0.61 in (2013)
Month to date precipitation 0.00 2.57  
Year to date precipitation 0.00 2.57  
Since 1 July precipitation 1.05 6.94  
Snow  
Snow 0.00 in - - ()
Month to date snowfall 0.0  
Year to date snowfall 0.0  
Since 1 July snowfall 0.0  
Snow Depth 0.00 in    
Sea Level Pressure  
Sea Level Pressure 30.17 in    
Wind  
Wind Speed 2 mph (SW)    
Max Wind Speed 10 mph    
Max Gust Speed 12 mph    
Visibility 8 miles    
Events      
T = Trace of Precipitation, MM = Missing Value Source: NWS Daily Summary

Daily Weather History Graph

Daily Weather History Graph

Search for Another Location

Airport:

Trip Planner

Search our weather history database for the weather conditions in past years. The results will help you decide how hot, cold, wet, or windy it might be!

Date:

Astronomy

Jan. 24, 2014 Rise Set
Actual Time 6:52 AM PST 5:14 PM PST
Civil Twilight 6:26 AM PST 5:41 PM PST
Nautical Twilight 5:55 AM PST 6:11 PM PST
Astronomical Twilight 5:26 AM PST 6:41 PM PST
Moon 12:28 AM PST (1/24) 11:33 AM PST (1/24)
Length of Visible Light 11h 15m
Length of Day
10h 22m
Last Quarter, 43% of the Moon is Illuminated
Jan 24
Last Quarter
Jan 30
New
Feb 6
First Quarter
Feb 14
Full
Feb 22
Last Quarter

Hourly Weather History & Observations

Time (PST) Temp. Dew Point Humidity Pressure Visibility Wind Dir Wind Speed Gust Speed Precip Events Conditions
12:53 AM 57.0 °F 52.0 °F 83% 30.10 in 6.0 mi Calm Calm - N/A   Haze
1:53 AM 55.9 °F 52.0 °F 87% 30.10 in 6.0 mi Calm Calm - N/A   Clear
2:53 AM 55.9 °F 50.0 °F 80% 30.10 in 7.0 mi Calm Calm - N/A   Clear
3:53 AM 55.9 °F 50.0 °F 80% 30.10 in 8.0 mi Calm Calm - N/A   Clear
4:53 AM 55.0 °F 50.0 °F 83% 30.11 in 8.0 mi Calm Calm - N/A   Clear
5:53 AM 55.0 °F 50.0 °F 83% 30.12 in 8.0 mi Calm Calm - N/A   Mostly Cloudy
6:53 AM 55.9 °F 48.9 °F 77% 30.14 in 10.0 mi Calm Calm - N/A   Overcast
7:53 AM 57.9 °F 50.0 °F 75% 30.16 in 8.0 mi Calm Calm - N/A   Overcast
8:53 AM 61.0 °F 46.9 °F 60% 30.18 in 9.0 mi Calm Calm - N/A   Overcast
9:53 AM 64.0 °F 46.0 °F 52% 30.20 in 9.0 mi SW 3.5 mph - N/A   Overcast
10:53 AM 66.0 °F 46.9 °F 50% 30.22 in 10.0 mi SSW 4.6 mph - N/A   Overcast
11:53 AM 68.0 °F 46.9 °F 47% 30.21 in 10.0 mi Calm Calm - N/A   Overcast
12:53 PM 71.1 °F 37.9 °F 30% 30.19 in 10.0 mi Calm Calm - N/A   Overcast
1:53 PM 68.0 °F 50.0 °F 52% 30.18 in 10.0 mi SSW 9.2 mph - N/A   Overcast
2:53 PM 68.0 °F 43.0 °F 40% 30.18 in 9.0 mi SW 6.9 mph - N/A   Overcast
3:53 PM 66.0 °F 48.0 °F 52% 30.18 in 8.0 mi SW 4.6 mph - N/A   Overcast
4:53 PM 66.0 °F 48.9 °F 54% 30.18 in 8.0 mi Calm Calm - N/A   Overcast
5:53 PM 64.0 °F 52.0 °F 65% 30.19 in 8.0 mi WNW 3.5 mph - N/A   Overcast
6:53 PM 64.0 °F 53.1 °F 67% 30.19 in 8.0 mi Calm Calm - N/A   Overcast
7:53 PM 63.0 °F 53.1 °F 70% 30.20 in 9.0 mi SSW 4.6 mph - N/A   Overcast
8:53 PM 62.1 °F 54.0 °F 75% 30.20 in 8.0 mi East 3.5 mph - N/A   Overcast
9:53 PM 62.1 °F 54.0 °F 75% 30.19 in 8.0 mi Calm Calm - N/A   Overcast
10:53 PM 62.1 °F 53.1 °F 72% 30.19 in 8.0 mi Calm Calm - N/A   Overcast
11:53 PM 62.1 °F 53.1 °F 72% 30.18 in 8.0 mi NNE 3.5 mph - N/A   Overcast